Location: Drignac
(45.1667°N, 2.0333°E)
Time: 01:05:32
(UTC+00:00)

Cosmos 1943 - Pass Details

Date: 29 March 2020
Orbit: 832 x 851 km, 71.0° (Epoch: 30 May)

Event Time Altitude Azimuth Distance (km) Brightness Sun altitude
Exits shadow 20:18:35 31° 72° (ENE) 1,454 4.1 -21.2°
Drops below altitude 10° 20:22:08 10° 41° (NE) 2,473 5.5 -21.8°
Sets 20:24:45 0° 33° (NNE) 3,416 6.3 -22.2°
